Location: Holbach
(51.5399°N, 10.6036°E)
Time: 09:04:55
(UTC+00:00)

Cosmos 1092 Rocket - Visible Passes

Search period start: 18 June 2021 00:00
Search period end: 28 June 2021 00:00
Orbit: 953 x 996 km, 83.0° (Epoch: 17 June)

Date Brightness Start Highest point End Pass type
(mag) Time Alt. Az. Time Alt. Az. Time Alt. Az.
18 Jun 5.2 00:21:17 10° SSE 00:26:43 35° E 00:32:11 10° NNE visible
18 Jun 4.5 02:06:02 10° SSW 02:11:56 48° WNW 02:17:53 10° N visible
18 Jun 6.4 23:06:34 10° E 23:07:38 10° ENE 23:08:43 10° ENE visible
19 Jun 4.4 00:45:57 12° S 00:51:38 57° E 00:57:38 10° NNE visible
19 Jun 6.0 23:28:10 10° ESE 23:32:10 18° ENE 23:36:11 10° NE visible
20 Jun 4.0 01:11:05 13° S 01:16:41 88° W 01:22:53 10° N visible
20 Jun 5.3 23:51:39 10° SE 23:56:51 30° E 00:02:05 10° NNE visible
21 Jun 4.3 01:36:11 11° SSW 01:41:55 55° WNW 01:47:58 10° N visible
22 Jun 4.6 00:16:38 14° SSE 00:21:43 49° E 00:27:37 10° NNE visible
22 Jun 4.9 02:01:47 10° SW 02:07:18 34° WNW 02:12:54 10° N visible
22 Jun 6.1 22:58:52 10° ESE 23:02:22 16° ENE 23:05:51 10° NE visible
23 Jun 4.0 00:41:42 16° S 00:46:43 81° E 00:52:54 10° NNE visible
23 Jun 5.5 23:22:08 10° SE 23:27:01 26° E 23:31:58 10° NNE visible
24 Jun 4.2 01:06:46 15° SSW 01:11:54 63° WNW 01:18:02 10° N visible
24 Jun 4.8 23:47:11 15° SSE 23:51:48 43° E 23:57:34 10° NNE visible
25 Jun 4.8 01:31:50 11° SW 01:37:14 39° WNW 01:43:00 10° N visible
25 Jun 6.1 22:29:45 10° ESE 22:32:34 14° ENE 22:35:24 10° NE visible
26 Jun 4.1 00:12:13 19° S 00:16:46 71° E 00:22:55 10° NNE visible
26 Jun 5.4 01:57:47 10° WSW 02:02:46 25° WNW 02:07:48 10° N visible
26 Jun 5.6 22:52:36 10° SE 22:57:10 23° E 23:01:48 10° NNE visible
27 Jun 4.0 00:37:15 18° SSW 00:41:54 73° WNW 00:48:06 10° N visible
27 Jun 4.9 23:17:37 16° SE 23:21:55 37° E 23:27:31 10° NNE visible
